Printer-friendly version

IAU Minor Planet Center

Minor Planet Center

MPEC 2007-S15 : 2007 SH

The following Minor Planet Electronic Circular may be linked-to from your own Web pages, but must not otherwise be redistributed electronically.


Read MPEC 2007-S14 Read MPEC 2007-S16


M.P.E.C. 2007-S15                                Issued 2007 Sept. 18, 18:59 UT

     The Minor Planet Electronic Circulars contain information on unusual
         minor planets and routine data on comets.  They are published
   on behalf of Commission 20 of the International Astronomical Union by the
          Minor Planet Center, Smithsonian Astrophysical Observatory,
                          Cambridge, MA 02138, U.S.A.

             Prepared using the Tamkin Foundation Computer Network

                              MPC@CFA.HARVARD.EDU
          URL http://www.cfa.harvard.edu/iau/mpc.html  ISSN 1523-6714

                                    2007 SH

Observations:
     K07S00H* C2007 09 17.23413 22 55 42.18 +00 02 58.9          18.9   ES015704
     K07S00H  C2007 09 17.24604 22 55 49.46 +00 10 31.1          19.4   ES015704
     K07S00H  C2007 09 17.25797 22 55 56.73 +00 18 00.8          19.4   ES015704
     K07S00H  C2007 09 17.28179 22 56 11.14 +00 32 52.6          19.5   ES015704
     K07S00H  C2007 09 17.99732 23 03 35.84 +06 44 25.6                 ES015J95
     K07S00H  C2007 09 17.99846 23 03 36.35 +06 44 56.7                 ES015J95
     K07S00H  C2007 09 17.99999 23 03 37.00 +06 45 36.5                 ES015J95
     K07S00H  C2007 09 18.00113 23 03 37.54 +06 46 06.4                 ES015J95
     K07S00H  C2007 09 18.00227 23 03 38.03 +06 46 36.1          19.0 R ES015J95
     K07S00H  C2007 09 18.19802 23 05 16.75 +08 08 48.1          18.8 R ES015932
     K07S00H  C2007 09 18.20288 23 05 18.62 +08 10 44.8          19.0 R ES015932
     K07S00H  C2007 09 18.20915 23 05 21.03 +08 13 14.3          19.0 R ES015932
     K07S00H  C2007 09 18.31657 23 06 10.95 +08 55 29.3          20.1 R ES015854
     K07S00H  C2007 09 18.31895 23 06 11.74 +08 56 24.8          19.5 R ES015854
     K07S00H  C2007 09 18.32132 23 06 12.55 +08 57 17.4          19.5 R ES015854

Observer details:
704 Lincoln Laboratory ETS, New Mexico.  Observers M. Bezpalko, D. Torres,
    R. Kracke, G. Spitz, J. Kistler.  Measurers J. Stuart, S. Scruggs.  1.0-m
    f/2.15 reflector + CCD.
854 Sabino Canyon Observatory, Tucson.  Observer J. E. McGaha.  0.36-m f/10.0
    Schmidt-Cassegrain + CCD.
932 John J. McCarthy Obs., New Milford.  Observer M. Robson.  0.4-m f/6.5
    Schmidt-Cassegrain + CCD.
J95 Great Shefford.  Observer P. Birtwhistle.  0.40-m f/6.0 Schmidt-Cassegrain
    + CCD.

Orbital elements:
2007 SH                                                  Earth MOID = 0.0110 AU
Epoch 2007 Oct. 27.0 TT = JDT 2454400.5                 MPC
M  33.61708              (2000.0)            P               Q
n   0.42676190     Peri.  311.19751     +0.56393216     +0.82544572
a   1.7472121      Node   352.99665     -0.68332910     +0.44948642
e   0.4786885      Incl.   11.78257     -0.46372606     +0.34146935
P   2.31           H   26.5           G   0.15           U   8
Residuals in seconds of arc
070917 704  0.3+  0.1+    070917 J95  0.0   0.4+    070918 932  0.4+  1.0-
070917 704  0.2-  0.0     070917 J95  0.4-  0.2+    070918 932  0.2+  0.4-
070917 704  0.2-  0.6-    070918 J95  0.2+  0.3+    070918 854  0.7+  0.3-
070917 704  0.3+  0.3+    070918 J95  0.0   0.2+    070918 854  0.2-  1.5+
070917 J95  0.1-  0.9-    070918 932  0.5+  1.9-    070918 854  0.7-  0.6+

Ephemeris:
2007 SH                  a,e,i = 1.75, 0.48, 12                  q = 0.9108
Date    TT    R. A. (2000) Decl.     Delta      r     Elong.  Phase     V
2007 09 17    22 52.51   -02 31.5    0.0212   1.026   169.0    10.8    18.9
2007 09 19    23 10.86   +12 40.3    0.0336   1.037   163.4    16.1    20.1
2007 09 21    23 19.65   +19 21.3    0.0473   1.048   158.3    20.8    21.0
2007 09 23    23 24.85   +22 57.2    0.0615   1.060   155.5    23.1    21.7
2007 09 25    23 28.33   +25 08.5    0.0759   1.072   153.9    24.4    22.2
2007 09 27    23 30.87   +26 34.3    0.0905   1.084   152.9    24.9    22.6

Sonia Keys                   (C) Copyright 2007 MPC           M.P.E.C. 2007-S15

Read MPEC 2007-S14 Read MPEC 2007-S16


Our Web policy. Index to the CBAT/MPC/ICQ pages.


Valid HTML 4.01!